Time,TemperatureF,DewpointF,PressureIn,WindDirection,WindDirectionDegrees,WindSpeedMPH,WindSpeedGustMPH,Humidity,HourlyPrecipIn,Conditions,Clouds,dailyrainin,SoftwareType,DateUTC
2013-06-27 00:43:00,72.0,69.0,29.78,NNE,22,0.0,0.0,90,0.00,,,0.00,TxWx,2013-06-27 04:43:00,
2013-06-27 00:48:00,72.0,69.0,29.79,NNE,22,0.0,0.0,90,0.00,,,0.00,TxWx,2013-06-27 04:48:00,
2013-06-27 00:53:00,72.0,69.0,29.79,North,0,1.0,1.0,90,0.00,,,0.00,TxWx,2013-06-27 04:53:00,
2013-06-27 01:00:00,72.0,69.0,29.79,NNE,22,1.0,1.0,90,0.00,,,0.00,TxWx,2013-06-27 05:00:00,
2013-06-27 01:05:00,72.0,69.0,29.78,NNE,22,1.0,1.0,90,0.00,,,0.00,TxWx,2013-06-27 05:05:00,
2013-06-27 01:10:00,72.0,69.0,29.78,NNE,22,1.0,1.0,90,0.00,,,0.00,TxWx,2013-06-27 05:10:00,
2013-06-27 01:15:00,72.0,69.0,29.78,NE,45,0.0,1.0,91,0.00,,,0.00,TxWx,2013-06-27 05:15:00,
2013-06-27 01:20:00,72.0,69.0,29.78,SSW,202,0.0,0.0,91,0.00,,,0.00,TxWx,2013-06-27 05:20:00,
2013-06-27 01:25:00,71.0,68.0,29.78,SSW,202,0.0,0.0,91,0.00,,,0.00,TxWx,2013-06-27 05:25:00,
2013-06-27 01:30:00,71.0,68.0,29.77,SSW,202,1.0,1.0,91,0.00,,,0.00,TxWx,2013-06-27 05:30:00,
2013-06-27 01:35:00,71.0,68.0,29.77,NW,315,1.0,1.0,91,0.00,,,0.00,TxWx,2013-06-27 05:35:00,
2013-06-27 01:41:00,71.0,68.0,29.76,NW,315,1.0,1.0,91,0.00,,,0.00,TxWx,2013-06-27 05:41:00,
2013-06-27 01:46:00,71.0,68.0,29.76,NNE,22,1.0,2.0,91,0.00,,,0.00,TxWx,2013-06-27 05:46:00,
2013-06-27 01:51:00,71.0,68.0,29.76,NNE,22,0.0,1.0,91,0.00,,,0.00,TxWx,2013-06-27 05:51:00,
2013-06-27 01:57:00,71.0,68.0,29.76,South,180,1.0,1.0,91,0.00,,,0.00,TxWx,2013-06-27 05:57:00,
2013-06-27 02:02:00,71.0,68.0,29.76,SSE,157,0.0,0.0,92,0.00,,,0.00,TxWx,2013-06-27 06:02:00,
2013-06-27 02:07:00,71.0,68.0,29.76,ESE,112,0.0,0.0,92,0.00,,,0.00,TxWx,2013-06-27 06:07:00,
2013-06-27 02:12:00,71.0,68.0,29.76,WSW,247,1.0,1.0,92,0.00,,,0.00,TxWx,2013-06-27 06:12:00,
2013-06-27 02:17:00,71.0,68.0,29.76,NW,315,1.0,1.0,92,0.00,,,0.00,TxWx,2013-06-27 06:17:00,
2013-06-27 02:22:00,71.0,68.0,29.76,NW,315,0.0,0.0,92,0.00,,,0.00,TxWx,2013-06-27 06:22:00,
2013-06-27 02:27:00,70.0,67.0,29.76,NNE,22,1.0,1.0,92,0.00,,,0.00,TxWx,2013-06-27 06:27:00,
2013-06-27 02:32:00,70.0,67.0,29.76,WNW,292,1.0,1.0,92,0.00,,,0.00,TxWx,2013-06-27 06:32:00,
2013-06-27 02:38:00,70.0,68.0,29.76,WNW,292,0.0,0.0,92,0.00,,,0.00,TxWx,2013-06-27 06:38:00,
2013-06-27 02:43:00,70.0,68.0,29.75,ENE,67,0.0,1.0,92,0.00,,,0.00,TxWx,2013-06-27 06:43:00,
2013-06-27 02:48:00,70.0,68.0,29.75,WSW,247,1.0,1.0,92,0.00,,,0.00,TxWx,2013-06-27 06:48:00,
2013-06-27 02:53:00,70.0,68.0,29.75,WSW,247,0.0,0.0,92,0.00,,,0.00,TxWx,2013-06-27 06:53:00,
2013-06-27 02:59:00,70.0,68.0,29.75,ENE,67,0.0,0.0,92,0.00,,,0.00,TxWx,2013-06-27 06:59:00,
2013-06-27 03:04:00,70.0,68.0,29.75,WNW,292,1.0,1.0,92,0.00,,,0.00,TxWx,2013-06-27 07:04:00,
2013-06-27 03:09:00,70.0,68.0,29.75,NW,315,2.0,2.0,93,0.00,,,0.00,TxWx,2013-06-27 07:09:00,
2013-06-27 03:14:00,70.0,68.0,29.75,NNW,337,0.0,1.0,93,0.00,,,0.00,TxWx,2013-06-27 07:14:00,
2013-06-27 03:19:00,69.0,67.0,29.75,North,0,0.0,0.0,93,0.00,,,0.00,TxWx,2013-06-27 07:19:00,
2013-06-27 03:24:00,69.0,67.0,29.75,West,270,0.0,0.0,93,0.00,,,0.00,TxWx,2013-06-27 07:24:00,
2013-06-27 03:29:00,69.0,67.0,29.75,NNE,22,0.0,1.0,93,0.00,,,0.00,TxWx,2013-06-27 07:29:00,
2013-06-27 03:35:00,69.0,67.0,29.75,ENE,67,0.0,1.0,93,0.00,,,0.00,TxWx,2013-06-27 07:35:00,
2013-06-27 03:40:00,70.0,68.0,29.75,NNE,22,0.0,0.0,93,0.00,,,0.00,TxWx,2013-06-27 07:40:00,
2013-06-27 03:45:00,70.0,68.0,29.75,NNE,22,0.0,0.0,93,0.00,,,0.00,TxWx,2013-06-27 07:45:00,
2013-06-27 03:50:00,69.0,67.0,29.75,NNE,22,0.0,0.0,93,0.00,,,0.00,TxWx,2013-06-27 07:50:00,
2013-06-27 03:55:00,69.0,67.0,29.75,NW,315,1.0,1.0,93,0.00,,,0.00,TxWx,2013-06-27 07:55:00,
2013-06-27 04:01:00,70.0,68.0,29.75,WNW,292,1.0,2.0,93,0.00,,,0.00,TxWx,2013-06-27 08:01:00,
2013-06-27 04:06:00,70.0,68.0,29.75,West,270,1.0,1.0,93,0.00,,,0.00,TxWx,2013-06-27 08:06:00,
2013-06-27 04:11:00,70.0,68.0,29.75,West,270,1.0,1.0,93,0.00,,,0.00,TxWx,2013-06-27 08:11:00,
2013-06-27 04:16:00,70.0,68.0,29.75,NNE,22,1.0,1.0,94,0.00,,,0.00,TxWx,2013-06-27 08:16:00,
2013-06-27 04:22:00,71.0,69.0,29.76,ENE,67,1.0,1.0,94,0.00,,,0.00,TxWx,2013-06-27 08:22:00,
2013-06-27 04:27:00,71.0,69.0,29.75,South,180,0.0,1.0,94,0.00,,,0.00,TxWx,2013-06-27 08:27:00,
2013-06-27 04:32:00,71.0,69.0,29.76,WSW,247,0.0,1.0,94,0.00,,,0.00,TxWx,2013-06-27 08:32:00,
2013-06-27 04:38:00,71.0,69.0,29.75,SE,135,1.0,1.0,94,0.00,,,0.00,TxWx,2013-06-27 08:38:00,
2013-06-27 04:43:00,71.0,69.0,29.76,SE,135,1.0,1.0,94,0.00,,,0.00,TxWx,2013-06-27 08:43:00,
2013-06-27 04:48:00,71.0,69.0,29.76,SW,225,1.0,1.0,94,0.00,,,0.00,TxWx,2013-06-27 08:48:00,
2013-06-27 04:53:00,72.0,70.0,29.76,SE,135,2.0,2.0,94,0.00,,,0.00,TxWx,2013-06-27 08:53:00,
2013-06-27 04:58:00,72.0,70.0,29.76,SSE,157,1.0,1.0,94,0.00,,,0.00,TxWx,2013-06-27 08:58:00,
2013-06-27 05:04:00,72.0,70.0,29.76,WNW,292,1.0,1.0,94,0.00,,,0.00,TxWx,2013-06-27 09:04:00,
2013-06-27 05:09:00,72.0,70.0,29.76,East,90,1.0,2.0,94,0.00,,,0.00,TxWx,2013-06-27 09:09:00,
2013-06-27 05:14:00,72.0,70.0,29.76,SE,135,1.0,1.0,95,0.00,,,0.00,TxWx,2013-06-27 09:14:00,
2013-06-27 05:19:00,72.0,70.0,29.77,WNW,292,2.0,2.0,94,0.00,,,0.00,TxWx,2013-06-27 09:19:00,
2013-06-27 05:25:00,72.0,70.0,29.77,NNE,22,1.0,1.0,94,0.00,,,0.00,TxWx,2013-06-27 09:25:00,
2013-06-27 05:30:00,72.0,70.0,29.77,SSE,157,2.0,3.0,95,0.00,,,0.00,TxWx,2013-06-27 09:30:00,
2013-06-27 05:35:00,72.0,70.0,29.77,SSE,157,1.0,1.0,95,0.00,,,0.00,TxWx,2013-06-27 09:35:00,
2013-06-27 05:40:00,72.0,70.0,29.77,WNW,292,1.0,2.0,95,0.00,,,0.00,TxWx,2013-06-27 09:40:00,
2013-06-27 05:45:00,72.0,70.0,29.77,North,0,1.0,1.0,95,0.00,,,0.00,TxWx,2013-06-27 09:45:00,
2013-06-27 05:51:00,72.0,70.0,29.77,NNE,22,0.0,0.0,95,0.00,,,0.00,TxWx,2013-06-27 09:51:00,
2013-06-27 05:56:00,72.0,70.0,29.77,WNW,292,2.0,2.0,95,0.00,,,0.00,TxWx,2013-06-27 09:56:00,
2013-06-27 06:01:00,72.0,70.0,29.77,West,270,0.0,0.0,95,0.00,,,0.00,TxWx,2013-06-27 10:01:00,
2013-06-27 06:07:00,72.0,70.0,29.77,NW,315,1.0,1.0,95,0.00,,,0.00,TxWx,2013-06-27 10:07:00,
2013-06-27 06:12:00,72.0,70.0,29.77,SW,225,1.0,2.0,95,0.00,,,0.00,TxWx,2013-06-27 10:12:00,
2013-06-27 06:17:00,72.0,70.0,29.77,WNW,292,2.0,2.0,95,0.00,,,0.00,TxWx,2013-06-27 10:17:00,
2013-06-27 06:23:00,71.0,69.0,29.76,WSW,247,3.0,3.0,95,0.00,,,0.00,TxWx,2013-06-27 10:23:00,
2013-06-27 06:28:00,71.0,69.0,29.76,WNW,292,1.0,1.0,95,0.00,,,0.00,TxWx,2013-06-27 10:28:00,
2013-06-27 06:33:00,71.0,69.0,29.76,SW,225,2.0,2.0,95,0.00,,,0.00,TxWx,2013-06-27 10:33:00,
2013-06-27 06:38:00,71.0,69.0,29.77,West,270,0.0,1.0,95,0.00,,,0.00,TxWx,2013-06-27 10:38:00,
2013-06-27 06:43:00,71.0,69.0,29.77,East,90,1.0,1.0,95,0.00,,,0.00,TxWx,2013-06-27 10:43:00,
2013-06-27 06:48:00,71.0,69.0,29.77,NNE,22,1.0,1.0,95,0.00,,,0.00,TxWx,2013-06-27 10:48:00,
2013-06-27 06:53:00,71.0,69.0,29.77,ENE,67,1.0,1.0,95,0.00,,,0.00,TxWx,2013-06-27 10:53:00,
2013-06-27 06:59:00,71.0,70.0,29.77,NNE,22,1.0,1.0,96,0.00,,,0.00,TxWx,2013-06-27 10:59:00,
2013-06-27 07:04:00,72.0,71.0,29.78,SSW,202,1.0,1.0,96,0.00,,,0.00,TxWx,2013-06-27 11:04:00,
2013-06-27 07:09:00,72.0,71.0,29.78,NNE,22,4.0,4.0,96,0.00,,,0.00,TxWx,2013-06-27 11:09:00,
2013-06-27 07:14:00,72.0,71.0,29.78,NE,45,3.0,3.0,96,0.00,,,0.00,TxWx,2013-06-27 11:14:00,
2013-06-27 07:19:00,72.0,71.0,29.78,NNW,337,1.0,2.0,96,0.00,,,0.00,TxWx,2013-06-27 11:19:00,
2013-06-27 07:24:00,72.0,71.0,29.77,NNE,22,3.0,3.0,96,0.00,,,0.00,TxWx,2013-06-27 11:24:00,
2013-06-27 07:30:00,72.0,71.0,29.77,NNE,22,1.0,1.0,96,0.00,,,0.00,TxWx,2013-06-27 11:30:00,
2013-06-27 07:35:00,72.0,71.0,29.77,NE,45,1.0,2.0,96,0.00,,,0.00,TxWx,2013-06-27 11:35:00,
2013-06-27 07:40:00,72.0,71.0,29.77,East,90,1.0,1.0,96,0.00,,,0.00,TxWx,2013-06-27 11:40:00,
2013-06-27 07:45:00,72.0,71.0,29.77,ENE,67,1.0,1.0,96,0.00,,,0.00,TxWx,2013-06-27 11:45:00,
2013-06-27 07:51:00,72.0,71.0,29.77,NNW,337,3.0,3.0,96,0.00,,,0.00,TxWx,2013-06-27 11:51:00,
2013-06-27 07:56:00,72.0,71.0,29.77,North,0,1.0,1.0,96,0.00,,,0.00,TxWx,2013-06-27 11:56:00,
2013-06-27 08:01:00,73.0,72.0,29.77,NNW,337,1.0,1.0,96,0.00,,,0.00,TxWx,2013-06-27 12:01:00,
2013-06-27 08:06:00,73.0,72.0,29.77,NNE,22,1.0,1.0,96,0.00,,,0.00,TxWx,2013-06-27 12:06:00,
2013-06-27 08:11:00,73.0,72.0,29.76,NW,315,1.0,1.0,96,0.00,,,0.00,TxWx,2013-06-27 12:11:00,
2013-06-27 08:17:00,73.0,72.0,29.76,NNW,337,3.0,3.0,96,0.00,,,0.00,TxWx,2013-06-27 12:17:00,
2013-06-27 08:22:00,73.0,72.0,29.76,North,0,1.0,2.0,96,0.00,,,0.00,TxWx,2013-06-27 12:22:00,
2013-06-27 08:27:00,73.0,72.0,29.76,NNW,337,2.0,2.0,96,0.00,,,0.00,TxWx,2013-06-27 12:27:00,
2013-06-27 08:33:00,73.0,72.0,29.76,North,0,1.0,1.0,96,0.00,,,0.00,TxWx,2013-06-27 12:33:00,
2013-06-27 08:38:00,73.0,72.0,29.76,WNW,292,1.0,1.0,96,0.00,,,0.00,TxWx,2013-06-27 12:38:00,
2013-06-27 08:43:00,74.0,73.0,29.76,North,0,2.0,2.0,97,0.00,,,0.00,TxWx,2013-06-27 12:43:00,
2013-06-27 08:48:00,74.0,73.0,29.76,WNW,292,1.0,1.0,97,0.00,,,0.00,TxWx,2013-06-27 12:48:00,
2013-06-27 08:53:00,74.0,73.0,29.76,West,270,2.0,3.0,97,0.00,,,0.00,TxWx,2013-06-27 12:53:00,
2013-06-27 08:59:00,75.0,74.0,29.76,ENE,67,3.0,4.0,97,0.00,,,0.00,TxWx,2013-06-27 12:59:00,
2013-06-27 09:04:00,75.0,74.0,29.76,ENE,67,1.0,3.0,97,0.00,,,0.00,TxWx,2013-06-27 13:04:00,
2013-06-27 09:09:00,75.0,74.0,29.75,WNW,292,3.0,3.0,97,0.00,,,0.00,TxWx,2013-06-27 13:09:00,
2013-06-27 09:15:00,76.0,75.0,29.75,WNW,292,2.0,2.0,97,0.00,,,0.00,TxWx,2013-06-27 13:15:00,
2013-06-27 09:20:00,76.0,75.0,29.75,NE,45,3.0,4.0,96,0.00,,,0.00,TxWx,2013-06-27 13:20:00,
2013-06-27 09:25:00,77.0,76.0,29.75,North,0,3.0,3.0,97,0.00,,,0.00,TxWx,2013-06-27 13:25:00,
2013-06-27 09:31:00,78.0,77.0,29.75,NNE,22,3.0,4.0,96,0.00,,,0.00,TxWx,2013-06-27 13:31:00,
2013-06-27 09:36:00,78.0,77.0,29.75,SE,135,1.0,1.0,97,0.00,,,0.00,TxWx,2013-06-27 13:36:00,
2013-06-27 09:41:00,78.0,77.0,29.75,SSE,157,1.0,1.0,97,0.00,,,0.00,TxWx,2013-06-27 13:41:00,
2013-06-27 09:46:00,79.0,78.0,29.75,East,90,3.0,3.0,97,0.00,,,0.00,TxWx,2013-06-27 13:46:00,
2013-06-27 09:52:00,80.0,79.0,29.75,South,180,1.0,1.0,96,0.00,,,0.00,TxWx,2013-06-27 13:52:00,
2013-06-27 09:57:00,81.0,79.0,29.75,NE,45,1.0,1.0,95,0.00,,,0.00,TxWx,2013-06-27 13:57:00,
2013-06-27 10:02:00,81.0,79.0,29.75,NE,45,2.0,2.0,93,0.00,,,0.00,TxWx,2013-06-27 14:02:00,
2013-06-27 10:08:00,82.0,79.0,29.75,North,0,2.0,3.0,91,0.00,,,0.00,TxWx,2013-06-27 14:08:00,
2013-06-27 10:13:00,82.0,78.0,29.75,North,0,3.0,3.0,89,0.00,,,0.00,TxWx,2013-06-27 14:13:00,
2013-06-27 10:18:00,82.0,78.0,29.75,SSE,157,1.0,1.0,87,0.00,,,0.00,TxWx,2013-06-27 14:18:00,
2013-06-27 10:23:00,82.0,76.0,29.75,SW,225,0.0,1.0,84,0.00,,,0.00,TxWx,2013-06-27 14:23:00,
2013-06-27 10:29:00,83.0,77.0,29.74,ESE,112,2.0,3.0,83,0.00,,,0.00,TxWx,2013-06-27 14:29:00,
2013-06-27 10:34:00,83.0,76.0,29.74,ENE,67,4.0,4.0,80,0.00,,,0.00,TxWx,2013-06-27 14:34:00,
2013-06-27 10:39:00,84.0,77.0,29.74,SSE,157,1.0,1.0,80,0.00,,,0.00,TxWx,2013-06-27 14:39:00,
2013-06-27 10:44:00,84.0,76.0,29.74,East,90,3.0,3.0,77,0.00,,,0.00,TxWx,2013-06-27 14:44:00,
2013-06-27 10:50:00,84.0,76.0,29.74,WNW,292,1.0,1.0,76,0.00,,,0.00,TxWx,2013-06-27 14:50:00,
2013-06-27 10:55:00,85.0,76.0,29.74,NNW,337,3.0,4.0,76,0.00,,,0.00,TxWx,2013-06-27 14:55:00,
2013-06-27 11:00:00,85.0,76.0,29.74,WNW,292,3.0,3.0,75,0.00,,,0.00,TxWx,2013-06-27 15:00:00,
2013-06-27 11:05:00,85.0,75.0,29.73,WSW,247,3.0,3.0,73,0.00,,,0.00,TxWx,2013-06-27 15:05:00,
2013-06-27 11:11:00,85.0,75.0,29.74,NNW,337,3.0,4.0,73,0.00,,,0.00,TxWx,2013-06-27 15:11:00,
2013-06-27 11:16:00,85.0,75.0,29.74,NE,45,1.0,2.0,72,0.00,,,0.00,TxWx,2013-06-27 15:16:00,
2013-06-27 11:21:00,85.0,75.0,29.74,NNE,22,2.0,2.0,73,0.00,,,0.00,TxWx,2013-06-27 15:21:00,
2013-06-27 11:27:00,85.0,75.0,29.74,NW,315,6.0,6.0,73,0.00,,,0.00,TxWx,2013-06-27 15:27:00,
2013-06-27 11:30:00,86.0,76.0,29.74,NNE,22,2.0,4.0,72,0.00,,,0.00,TxWx,2013-06-27 15:30:00,
2013-06-27 11:35:00,86.0,76.0,29.73,North,0,3.0,3.0,72,0.00,,,0.00,TxWx,2013-06-27 15:35:00,
2013-06-27 11:40:00,86.0,75.0,29.73,NNE,22,1.0,1.0,71,0.00,,,0.00,TxWx,2013-06-27 15:40:00,
2013-06-27 11:46:00,86.0,75.0,29.73,NW,315,2.0,4.0,70,0.00,,,0.00,TxWx,2013-06-27 15:46:00,
2013-06-27 11:51:00,86.0,74.0,29.73,WNW,292,3.0,3.0,68,0.00,,,0.00,TxWx,2013-06-27 15:51:00,
2013-06-27 11:56:00,86.0,75.0,29.73,WNW,292,2.0,2.0,69,0.00,,,0.00,TxWx,2013-06-27 15:56:00,
2013-06-27 12:01:00,86.0,75.0,29.73,East,90,2.0,3.0,69,0.00,,,0.00,TxWx,2013-06-27 16:01:00,
2013-06-27 12:06:00,86.0,74.0,29.73,NNE,22,3.0,4.0,69,0.00,,,0.00,TxWx,2013-06-27 16:06:00,
2013-06-27 12:12:00,86.0,74.0,29.73,NW,315,3.0,3.0,68,0.00,,,0.00,TxWx,2013-06-27 16:12:00,
2013-06-27 12:16:00,86.0,74.0,29.73,North,0,3.0,3.0,68,0.00,,,0.00,TxWx,2013-06-27 16:16:00,
2013-06-27 12:21:00,86.0,74.0,29.73,NNE,22,5.0,6.0,67,0.00,,,0.00,TxWx,2013-06-27 16:21:00,
2013-06-27 12:27:00,86.0,74.0,29.73,NNE,22,8.0,9.0,68,0.00,,,0.00,TxWx,2013-06-27 16:27:00,
2013-06-27 12:32:00,85.0,74.0,29.72,NNE,22,5.0,5.0,70,0.00,,,0.00,TxWx,2013-06-27 16:32:00,
2013-06-27 12:37:00,85.0,74.0,29.72,WNW,292,3.0,3.0,70,0.00,,,0.00,TxWx,2013-06-27 16:37:00,
2013-06-27 12:42:00,85.0,74.0,29.72,NW,315,3.0,5.0,70,0.00,,,0.00,TxWx,2013-06-27 16:42:00,
2013-06-27 12:48:00,86.0,75.0,29.72,NNW,337,3.0,4.0,70,0.00,,,0.00,TxWx,2013-06-27 16:48:00,
2013-06-27 12:53:00,86.0,75.0,29.72,WNW,292,4.0,5.0,69,0.00,,,0.00,TxWx,2013-06-27 16:53:00,
2013-06-27 12:58:00,87.0,75.0,29.71,North,0,5.0,5.0,68,0.00,,,0.00,TxWx,2013-06-27 16:58:00,
2013-06-27 13:03:00,87.0,74.0,29.71,NNE,22,5.0,5.0,67,0.00,,,0.00,TxWx,2013-06-27 17:03:00,
2013-06-27 13:09:00,87.0,75.0,29.71,NW,315,2.0,3.0,67,0.00,,,0.00,TxWx,2013-06-27 17:09:00,
2013-06-27 13:14:00,87.0,74.0,29.71,North,0,1.0,2.0,67,0.00,,,0.00,TxWx,2013-06-27 17:14:00,
2013-06-27 13:19:00,88.0,76.0,29.71,WSW,247,1.0,1.0,67,0.00,,,0.00,TxWx,2013-06-27 17:19:00,
2013-06-27 13:24:00,87.0,74.0,29.71,West,270,4.0,5.0,66,0.00,,,0.00,TxWx,2013-06-27 17:24:00,
2013-06-27 13:29:00,88.0,75.0,29.71,NNE,22,3.0,3.0,66,0.00,,,0.00,TxWx,2013-06-27 17:29:00,
2013-06-27 13:34:00,88.0,74.0,29.70,NNW,337,4.0,4.0,65,0.00,,,0.00,TxWx,2013-06-27 17:34:00,
2013-06-27 13:39:00,87.0,74.0,29.70,NW,315,2.0,2.0,65,0.00,,,0.00,TxWx,2013-06-27 17:39:00,
2013-06-27 13:45:00,88.0,75.0,29.70,North,0,4.0,5.0,65,0.00,,,0.00,TxWx,2013-06-27 17:45:00,
2013-06-27 13:50:00,87.0,73.0,29.70,North,0,3.0,4.0,64,0.00,,,0.00,TxWx,2013-06-27 17:50:00,
2013-06-27 13:55:00,87.0,73.0,29.70,NNE,22,1.0,1.0,63,0.00,,,0.00,TxWx,2013-06-27 17:55:00,
2013-06-27 14:00:00,87.0,74.0,29.70,WNW,292,4.0,5.0,65,0.00,,,0.00,TxWx,2013-06-27 18:00:00,
2013-06-27 14:05:00,88.0,74.0,29.70,WNW,292,2.0,3.0,65,0.00,,,0.00,TxWx,2013-06-27 18:05:00,
2013-06-27 14:11:00,88.0,74.0,29.69,West,270,2.0,2.0,63,0.00,,,0.00,TxWx,2013-06-27 18:11:00,
2013-06-27 14:16:00,89.0,74.0,29.69,North,0,3.0,3.0,61,0.00,,,0.00,TxWx,2013-06-27 18:16:00,
2013-06-27 14:21:00,88.0,73.0,29.69,NNW,337,3.0,4.0,61,0.00,,,0.00,TxWx,2013-06-27 18:21:00,
2013-06-27 14:26:00,89.0,74.0,29.69,NNW,337,4.0,4.0,62,0.00,,,0.00,TxWx,2013-06-27 18:26:00,
2013-06-27 14:31:00,89.0,74.0,29.68,WNW,292,2.0,3.0,61,0.00,,,0.00,TxWx,2013-06-27 18:31:00,
2013-06-27 14:37:00,89.0,74.0,29.68,NW,315,2.0,3.0,61,0.00,,,0.00,TxWx,2013-06-27 18:37:00,
2013-06-27 14:42:00,90.0,75.0,29.68,ENE,67,4.0,4.0,61,0.00,,,0.00,TxWx,2013-06-27 18:42:00,
2013-06-27 14:47:00,89.0,73.0,29.68,SW,225,3.0,3.0,59,0.00,,,0.00,TxWx,2013-06-27 18:47:00,
2013-06-27 14:53:00,89.0,73.0,29.68,NNW,337,2.0,4.0,60,0.00,,,0.00,TxWx,2013-06-27 18:53:00,
2013-06-27 14:58:00,88.0,73.0,29.68,WNW,292,3.0,5.0,62,0.00,,,0.00,TxWx,2013-06-27 18:58:00,
2013-06-27 15:01:00,75.0,72.0,29.53,South,180,8.0,8.0,90,0.60,,,0.00,TxWx,2013-06-27 19:01:00,
2013-06-27 15:02:00,75.0,72.0,29.53,WSW,247,5.0,8.0,90,0.60,,,0.00,TxWx,2013-06-27 19:02:00,
2013-06-27 15:03:00,88.0,73.0,29.68,NW,315,1.0,1.0,62,0.00,,,0.00,TxWx,2013-06-27 19:03:00,
2013-06-27 15:04:00,75.0,72.0,29.53,South,180,4.0,4.0,90,0.60,,,0.00,TxWx,2013-06-27 19:04:00,
2013-06-27 15:05:00,75.0,72.0,29.53,SSW,202,5.0,5.0,90,0.60,,,0.01,TxWx,2013-06-27 19:05:00,
2013-06-27 15:06:00,75.0,72.0,29.53,South,180,5.0,6.0,90,0.60,,,0.01,TxWx,2013-06-27 19:06:00,
2013-06-27 15:07:00,75.0,72.0,29.52,SE,135,4.0,5.0,91,0.60,,,0.01,TxWx,2013-06-27 19:07:00,
2013-06-27 15:08:00,88.0,74.0,29.68,West,270,3.0,3.0,63,0.00,,,0.00,TxWx,2013-06-27 19:08:00,
2013-06-27 15:09:00,75.0,72.0,29.52,SSE,157,5.0,5.0,91,0.60,,,0.01,TxWx,2013-06-27 19:09:00,
2013-06-27 15:10:00,75.0,72.0,29.52,SW,225,6.0,6.0,91,0.60,,,0.01,TxWx,2013-06-27 19:10:00,
2013-06-27 15:11:00,75.0,72.0,29.51,SSW,202,6.0,7.0,91,0.60,,,0.01,TxWx,2013-06-27 19:11:00,
2013-06-27 15:12:00,75.0,72.0,29.51,SE,135,7.0,10.0,91,0.60,,,0.01,TxWx,2013-06-27 19:12:00,
2013-06-27 15:13:00,75.0,72.0,29.51,SSE,157,6.0,9.0,91,0.60,,,0.01,TxWx,2013-06-27 19:13:00,
2013-06-27 15:14:00,87.0,72.0,29.68,SW,225,3.0,3.0,62,0.00,,,0.00,TxWx,2013-06-27 19:14:00,
2013-06-27 15:15:00,75.0,72.0,29.51,SSW,202,8.0,8.0,91,0.60,,,0.01,TxWx,2013-06-27 19:15:00,
2013-06-27 15:16:00,75.0,72.0,29.50,SSW,202,9.0,9.0,91,0.60,,,0.01,TxWx,2013-06-27 19:16:00,
2013-06-27 15:17:00,75.0,72.0,29.51,SE,135,5.0,6.0,91,0.60,,,0.01,TxWx,2013-06-27 19:17:00,
2013-06-27 15:18:00,75.0,72.0,29.51,South,180,9.0,10.0,91,0.60,,,0.01,TxWx,2013-06-27 19:18:00,
2013-06-27 15:19:00,88.0,74.0,29.68,West,270,2.0,4.0,63,0.00,,,0.00,TxWx,2013-06-27 19:19:00,
2013-06-27 15:20:00,75.0,72.0,29.50,SSW,202,6.0,8.0,92,0.00,,,0.01,TxWx,2013-06-27 19:20:00,
2013-06-27 15:21:00,75.0,72.0,29.50,SSE,157,6.0,8.0,92,0.00,,,0.01,TxWx,2013-06-27 19:21:00,
2013-06-27 15:22:00,75.0,72.0,29.50,SSE,157,5.0,6.0,92,0.00,,,0.01,TxWx,2013-06-27 19:22:00,
2013-06-27 15:23:00,75.0,72.0,29.50,SSE,157,7.0,7.0,92,0.00,,,0.01,TxWx,2013-06-27 19:23:00,
2013-06-27 15:24:00,88.0,73.0,29.68,SW,225,2.0,2.0,62,0.00,,,0.00,TxWx,2013-06-27 19:24:00,
2013-06-27 15:25:00,75.0,72.0,29.50,South,180,10.0,14.0,92,0.00,,,0.01,TxWx,2013-06-27 19:25:00,
2013-06-27 15:26:00,75.0,73.0,29.50,SW,225,8.0,8.0,92,0.00,,,0.02,TxWx,2013-06-27 19:26:00,
2013-06-27 15:27:00,75.0,73.0,29.50,SSE,157,6.0,8.0,92,0.00,,,0.02,TxWx,2013-06-27 19:27:00,
2013-06-27 15:28:00,75.0,73.0,29.50,South,180,8.0,8.0,92,0.00,,,0.02,TxWx,2013-06-27 19:28:00,
2013-06-27 15:29:00,75.0,73.0,29.50,South,180,6.0,8.0,92,0.00,,,0.02,TxWx,2013-06-27 19:29:00,
2013-06-27 15:30:00,88.0,73.0,29.67,NNE,22,1.0,2.0,61,0.00,,,0.00,TxWx,2013-06-27 19:30:00,
2013-06-27 15:31:00,75.0,73.0,29.49,SSW,202,7.0,8.0,93,0.60,,,0.02,TxWx,2013-06-27 19:31:00,
2013-06-27 15:32:00,75.0,73.0,29.49,SSW,202,5.0,6.0,93,0.60,,,0.02,TxWx,2013-06-27 19:32:00,
2013-06-27 15:33:00,75.0,73.0,29.49,SE,135,4.0,6.0,93,0.60,,,0.02,TxWx,2013-06-27 19:33:00,
2013-06-27 15:34:00,75.0,73.0,29.49,South,180,8.0,8.0,93,0.60,,,0.02,TxWx,2013-06-27 19:34:00,
2013-06-27 15:35:00,89.0,74.0,29.67,SW,225,4.0,5.0,62,0.00,,,0.00,TxWx,2013-06-27 19:35:00,
2013-06-27 15:36:00,75.0,73.0,29.49,South,180,6.0,7.0,93,0.60,,,0.02,TxWx,2013-06-27 19:36:00,
2013-06-27 15:37:00,75.0,73.0,29.49,South,180,10.0,10.0,93,0.60,,,0.02,TxWx,2013-06-27 19:37:00,
2013-06-27 15:39:00,75.0,73.0,29.48,ESE,112,10.0,10.0,93,0.60,,,0.02,TxWx,2013-06-27 19:39:00,
2013-06-27 15:40:00,88.0,73.0,29.67,West,270,3.0,4.0,61,0.00,,,0.00,TxWx,2013-06-27 19:40:00,
2013-06-27 15:41:00,75.0,73.0,29.48,WSW,247,7.0,9.0,93,0.00,,,0.02,TxWx,2013-06-27 19:41:00,
2013-06-27 15:42:00,75.0,73.0,29.48,SW,225,11.0,11.0,93,0.00,,,0.02,TxWx,2013-06-27 19:42:00,
2013-06-27 15:43:00,75.0,73.0,29.48,SSW,202,10.0,11.0,93,0.00,,,0.02,TxWx,2013-06-27 19:43:00,
2013-06-27 15:44:00,75.0,73.0,29.48,South,180,6.0,9.0,93,0.00,,,0.02,TxWx,2013-06-27 19:44:00,
2013-06-27 15:45:00,88.0,73.0,29.67,WNW,292,3.0,4.0,61,0.00,,,0.00,TxWx,2013-06-27 19:45:00,
2013-06-27 15:47:00,75.0,73.0,29.47,South,180,7.0,11.0,93,0.00,,,0.02,TxWx,2013-06-27 19:47:00,
2013-06-27 15:48:00,75.0,73.0,29.47,SW,225,6.0,8.0,93,0.00,,,0.02,TxWx,2013-06-27 19:48:00,
2013-06-27 15:49:00,75.0,73.0,29.47,SSW,202,11.0,12.0,93,0.00,,,0.02,TxWx,2013-06-27 19:49:00,
2013-06-27 15:50:00,88.0,72.0,29.67,SSW,202,1.0,3.0,60,0.00,,,0.00,TxWx,2013-06-27 19:50:00,
2013-06-27 15:51:00,75.0,73.0,29.47,WNW,292,3.0,11.0,93,0.00,,,0.02,TxWx,2013-06-27 19:51:00,
2013-06-27 15:52:00,75.0,73.0,29.47,SE,135,6.0,7.0,94,0.00,,,0.02,TxWx,2013-06-27 19:52:00,
2013-06-27 15:53:00,75.0,73.0,29.47,SSE,157,5.0,8.0,94,0.00,,,0.03,TxWx,2013-06-27 19:53:00,
2013-06-27 15:54:00,75.0,73.0,29.47,South,180,9.0,14.0,94,0.00,,,0.03,TxWx,2013-06-27 19:54:00,
2013-06-27 15:55:00,75.0,73.0,29.46,WSW,247,5.0,6.0,94,0.00,,,0.03,TxWx,2013-06-27 19:55:00,
2013-06-27 15:56:00,88.0,73.0,29.67,NW,315,2.0,3.0,61,0.00,,,0.00,TxWx,2013-06-27 19:56:00,
2013-06-27 15:57:00,75.0,73.0,29.46,WSW,247,5.0,5.0,94,0.00,,,0.03,TxWx,2013-06-27 19:57:00,
2013-06-27 15:58:00,75.0,73.0,29.46,WSW,247,10.0,17.0,94,0.00,,,0.03,TxWx,2013-06-27 19:58:00,
2013-06-27 16:01:00,88.0,73.0,29.67,North,0,1.0,3.0,62,0.00,,,0.00,TxWx,2013-06-27 20:01:00,
2013-06-27 16:06:00,89.0,74.0,29.67,WNW,292,1.0,2.0,61,0.00,,,0.00,TxWx,2013-06-27 20:06:00,
2013-06-27 16:07:00,75.0,73.0,29.45,SE,135,3.0,4.0,94,0.60,,,0.03,TxWx,2013-06-27 20:07:00,
2013-06-27 16:11:00,88.0,73.0,29.66,SW,225,3.0,3.0,61,0.00,,,0.00,TxWx,2013-06-27 20:11:00,
2013-06-27 16:16:00,89.0,73.0,29.66,NW,315,2.0,3.0,61,0.00,,,0.00,TxWx,2013-06-27 20:16:00,
2013-06-27 16:19:00,75.0,73.0,29.45,SSW,202,5.0,6.0,94,0.00,,,0.03,TxWx,2013-06-27 20:19:00,
2013-06-27 16:21:00,75.0,73.0,29.45,West,270,4.0,8.0,94,0.00,,,0.03,TxWx,2013-06-27 20:21:00,
2013-06-27 16:22:00,89.0,73.0,29.66,WSW,247,1.0,1.0,61,0.00,,,0.00,TxWx,2013-06-27 20:22:00,
2013-06-27 16:27:00,89.0,73.0,29.66,West,270,2.0,3.0,61,0.00,,,0.00,TxWx,2013-06-27 20:27:00,
2013-06-27 16:32:00,89.0,73.0,29.66,NNW,337,2.0,3.0,61,0.00,,,0.00,TxWx,2013-06-27 20:32:00,
2013-06-27 16:38:00,89.0,74.0,29.65,NW,315,1.0,2.0,61,0.00,,,0.00,TxWx,2013-06-27 20:38:00,
2013-06-27 16:43:00,88.0,73.0,29.65,NNW,337,2.0,2.0,62,0.00,,,0.00,TxWx,2013-06-27 20:43:00,
2013-06-27 16:49:00,88.0,73.0,29.65,NW,315,1.0,1.0,61,0.00,,,0.00,TxWx,2013-06-27 20:49:00,
2013-06-27 16:54:00,88.0,73.0,29.65,NW,315,1.0,1.0,61,0.00,,,0.00,TxWx,2013-06-27 20:54:00,
2013-06-27 16:59:00,89.0,74.0,29.65,WSW,247,1.0,1.0,61,0.00,,,0.00,TxWx,2013-06-27 20:59:00,
2013-06-27 17:04:00,89.0,74.0,29.65,NW,315,2.0,3.0,61,0.00,,,0.00,TxWx,2013-06-27 21:04:00,
2013-06-27 17:09:00,88.0,73.0,29.64,WNW,292,1.0,1.0,61,0.00,,,0.00,TxWx,2013-06-27 21:09:00,
2013-06-27 17:15:00,88.0,73.0,29.64,North,0,1.0,1.0,62,0.00,,,0.00,TxWx,2013-06-27 21:15:00,
2013-06-27 17:20:00,87.0,73.0,29.64,SSW,202,3.0,3.0,63,0.00,,,0.00,TxWx,2013-06-27 21:20:00,
2013-06-27 17:26:00,87.0,73.0,29.64,WNW,292,1.0,1.0,64,0.00,,,0.00,TxWx,2013-06-27 21:26:00,
2013-06-27 17:31:00,88.0,74.0,29.64,NW,315,3.0,4.0,63,0.00,,,0.00,TxWx,2013-06-27 21:31:00,
2013-06-27 17:36:00,88.0,73.0,29.64,WNW,292,3.0,3.0,61,0.00,,,0.00,TxWx,2013-06-27 21:36:00,
2013-06-27 17:42:00,89.0,73.0,29.64,SW,225,3.0,3.0,61,0.00,,,0.00,TxWx,2013-06-27 21:42:00,
2013-06-27 17:47:00,89.0,73.0,29.64,West,270,1.0,1.0,60,0.00,,,0.00,TxWx,2013-06-27 21:47:00,
2013-06-27 17:52:00,89.0,73.0,29.64,WNW,292,5.0,5.0,59,0.00,,,0.00,TxWx,2013-06-27 21:52:00,
2013-06-27 17:57:00,89.0,73.0,29.64,NE,45,1.0,2.0,60,0.00,,,0.00,TxWx,2013-06-27 21:57:00,
2013-06-27 18:03:00,88.0,73.0,29.63,NE,45,1.0,2.0,61,0.00,,,0.00,TxWx,2013-06-27 22:03:00,
2013-06-27 18:08:00,87.0,72.0,29.63,North,0,1.0,2.0,62,0.00,,,0.00,TxWx,2013-06-27 22:08:00,
2013-06-27 18:13:00,87.0,73.0,29.63,NNE,22,2.0,2.0,63,0.00,,,0.00,TxWx,2013-06-27 22:13:00,
2013-06-27 18:18:00,86.0,72.0,29.63,NNW,337,1.0,1.0,64,0.00,,,0.00,TxWx,2013-06-27 22:18:00,
2013-06-27 18:24:00,86.0,73.0,29.63,WNW,292,0.0,1.0,65,0.00,,,0.00,TxWx,2013-06-27 22:24:00,
2013-06-27 18:29:00,86.0,73.0,29.63,NNE,22,1.0,1.0,66,0.00,,,0.00,TxWx,2013-06-27 22:29:00,
2013-06-27 18:34:00,86.0,73.0,29.63,NNW,337,1.0,2.0,67,0.00,,,0.00,TxWx,2013-06-27 22:34:00,
2013-06-27 18:39:00,86.0,74.0,29.63,North,0,4.0,4.0,67,0.00,,,0.00,TxWx,2013-06-27 22:39:00,
2013-06-27 18:44:00,85.0,73.0,29.63,NNE,22,4.0,6.0,68,0.00,,,0.00,TxWx,2013-06-27 22:44:00,
2013-06-27 18:49:00,85.0,73.0,29.63,NW,315,3.0,4.0,69,0.00,,,0.00,TxWx,2013-06-27 22:49:00,
2013-06-27 18:55:00,85.0,74.0,29.63,NNE,22,2.0,3.0,70,0.00,,,0.00,TxWx,2013-06-27 22:55:00,
2013-06-27 19:00:00,84.0,73.0,29.63,NNW,337,4.0,6.0,71,0.00,,,0.00,TxWx,2013-06-27 23:00:00,
2013-06-27 19:05:00,84.0,74.0,29.63,NW,315,1.0,3.0,71,0.00,,,0.00,TxWx,2013-06-27 23:05:00,
2013-06-27 19:10:00,84.0,74.0,29.63,NNW,337,3.0,3.0,71,0.00,,,0.00,TxWx,2013-06-27 23:10:00,
2013-06-27 19:16:00,84.0,74.0,29.64,North,0,6.0,6.0,72,0.00,,,0.00,TxWx,2013-06-27 23:16:00,
2013-06-27 19:21:00,83.0,73.0,29.64,NNE,22,1.0,1.0,72,0.00,,,0.00,TxWx,2013-06-27 23:21:00,
2013-06-27 19:26:00,83.0,73.0,29.64,NNE,22,3.0,3.0,72,0.00,,,0.00,TxWx,2013-06-27 23:26:00,
2013-06-27 19:32:00,83.0,73.0,29.64,NNW,337,3.0,8.0,72,0.00,,,0.00,TxWx,2013-06-27 23:32:00,
2013-06-27 19:37:00,83.0,73.0,29.64,ESE,112,2.0,3.0,73,0.00,,,0.00,TxWx,2013-06-27 23:37:00,
2013-06-27 19:43:00,83.0,73.0,29.64,WNW,292,1.0,3.0,73,0.00,,,0.00,TxWx,2013-06-27 23:43:00,
2013-06-27 19:48:00,83.0,73.0,29.64,SE,135,1.0,3.0,73,0.00,,,0.00,TxWx,2013-06-27 23:48:00,
2013-06-27 19:54:00,83.0,73.0,29.64,NW,315,1.0,2.0,73,0.00,,,0.00,TxWx,2013-06-27 23:54:00,
2013-06-27 19:59:00,82.0,72.0,29.64,NE,45,1.0,1.0,73,0.00,,,0.00,TxWx,2013-06-27 23:59:00,
2013-06-27 20:04:00,82.0,72.0,29.64,South,180,1.0,1.0,73,0.00,,,0.00,TxWx,2013-06-28 00:04:00,
2013-06-27 20:10:00,82.0,73.0,29.63,NW,315,1.0,1.0,74,0.00,,,0.00,TxWx,2013-06-28 00:10:00,
2013-06-27 20:15:00,82.0,73.0,29.63,NNE,22,1.0,1.0,74,0.00,,,0.00,TxWx,2013-06-28 00:15:00,
2013-06-27 20:20:00,82.0,73.0,29.63,WSW,247,1.0,1.0,74,0.00,,,0.00,TxWx,2013-06-28 00:20:00,
2013-06-27 20:25:00,82.0,73.0,29.63,North,0,1.0,1.0,74,0.00,,,0.00,TxWx,2013-06-28 00:25:00,
2013-06-27 20:31:00,82.0,73.0,29.63,South,180,1.0,2.0,74,0.00,,,0.00,TxWx,2013-06-28 00:31:00,
2013-06-27 20:36:00,82.0,73.0,29.63,South,180,1.0,1.0,75,0.00,,,0.00,TxWx,2013-06-28 00:36:00,
2013-06-27 20:41:00,81.0,72.0,29.63,NNE,22,0.0,0.0,75,0.00,,,0.00,TxWx,2013-06-28 00:41:00,
2013-06-27 20:46:00,81.0,72.0,29.63,South,180,1.0,1.0,75,0.00,,,0.00,TxWx,2013-06-28 00:46:00,
2013-06-27 20:52:00,81.0,72.0,29.63,ESE,112,1.0,1.0,76,0.00,,,0.00,TxWx,2013-06-28 00:52:00,
2013-06-27 20:57:00,81.0,73.0,29.63,ESE,112,2.0,3.0,77,0.00,,,0.00,TxWx,2013-06-28 00:57:00,
2013-06-27 21:02:00,81.0,73.0,29.63,SW,225,1.0,2.0,78,0.00,,,0.00,TxWx,2013-06-28 01:02:00,
2013-06-27 21:07:00,80.0,73.0,29.63,East,90,0.0,1.0,79,0.00,,,0.00,TxWx,2013-06-28 01:07:00,
2013-06-27 21:13:00,80.0,73.0,29.63,SE,135,2.0,2.0,79,0.00,,,0.00,TxWx,2013-06-28 01:13:00,
2013-06-27 21:18:00,80.0,73.0,29.63,SSE,157,2.0,2.0,80,0.00,,,0.00,TxWx,2013-06-28 01:18:00,
2013-06-27 21:23:00,80.0,73.0,29.63,SSE,157,4.0,5.0,80,0.00,,,0.00,TxWx,2013-06-28 01:23:00,
2013-06-27 21:28:00,79.0,73.0,29.62,SE,135,2.0,3.0,81,0.00,,,0.00,TxWx,2013-06-28 01:28:00,
2013-06-27 21:34:00,79.0,73.0,29.62,SE,135,2.0,3.0,82,0.00,,,0.00,TxWx,2013-06-28 01:34:00,
2013-06-27 21:39:00,79.0,73.0,29.62,SSE,157,3.0,4.0,83,0.00,,,0.00,TxWx,2013-06-28 01:39:00,
2013-06-27 21:45:00,78.0,73.0,29.62,South,180,2.0,3.0,84,0.00,,,0.00,TxWx,2013-06-28 01:45:00,
2013-06-27 21:50:00,78.0,73.0,29.62,South,180,1.0,2.0,84,0.00,,,0.00,TxWx,2013-06-28 01:50:00,
2013-06-27 21:55:00,78.0,73.0,29.61,NE,45,1.0,1.0,85,0.00,,,0.00,TxWx,2013-06-28 01:55:00,
2013-06-27 22:01:00,78.0,73.0,29.61,SE,135,0.0,1.0,85,0.00,,,0.00,TxWx,2013-06-28 02:01:00,
2013-06-27 22:06:00,78.0,73.0,29.61,NW,315,1.0,1.0,85,0.00,,,0.00,TxWx,2013-06-28 02:06:00,
2013-06-27 22:11:00,78.0,73.0,29.61,North,0,1.0,1.0,85,0.00,,,0.00,TxWx,2013-06-28 02:11:00,
2013-06-27 22:16:00,78.0,73.0,29.60,ENE,67,1.0,1.0,85,0.00,,,0.00,TxWx,2013-06-28 02:16:00,
2013-06-27 22:22:00,78.0,73.0,29.60,SSW,202,2.0,3.0,86,0.00,,,0.00,TxWx,2013-06-28 02:22:00,
2013-06-27 22:27:00,78.0,73.0,29.60,NE,45,0.0,1.0,86,0.00,,,0.00,TxWx,2013-06-28 02:27:00,
2013-06-27 22:32:00,78.0,73.0,29.59,West,270,1.0,2.0,86,0.00,,,0.00,TxWx,2013-06-28 02:32:00,
2013-06-27 22:38:00,78.0,73.0,29.59,South,180,2.0,2.0,86,0.00,,,0.00,TxWx,2013-06-28 02:38:00,
2013-06-27 22:43:00,78.0,74.0,29.58,SSE,157,1.0,2.0,87,0.00,,,0.00,TxWx,2013-06-28 02:43:00,
2013-06-27 22:49:00,78.0,74.0,29.58,SE,135,3.0,4.0,87,0.00,,,0.00,TxWx,2013-06-28 02:49:00,
2013-06-27 22:54:00,77.0,73.0,29.58,SSW,202,2.0,2.0,87,0.00,,,0.00,TxWx,2013-06-28 02:54:00,
2013-06-27 22:59:00,77.0,73.0,29.58,South,180,1.0,1.0,87,0.00,,,0.00,TxWx,2013-06-28 02:59:00,
2013-06-27 23:04:00,78.0,74.0,29.58,SW,225,3.0,3.0,87,0.00,,,0.00,TxWx,2013-06-28 03:04:00,
2013-06-27 23:09:00,78.0,74.0,29.57,ESE,112,1.0,2.0,87,0.00,,,0.00,TxWx,2013-06-28 03:09:00,
2013-06-27 23:15:00,77.0,73.0,29.57,South,180,3.0,3.0,87,0.00,,,0.01,TxWx,2013-06-28 03:15:00,
2013-06-27 23:20:00,77.0,73.0,29.56,South,180,5.0,5.0,87,0.60,,,0.03,TxWx,2013-06-28 03:20:00,
2013-06-27 23:25:00,77.0,73.0,29.55,South,180,6.0,7.0,87,0.60,,,0.05,TxWx,2013-06-28 03:25:00,
2013-06-27 23:31:00,76.0,72.0,29.55,SW,225,3.0,4.0,88,0.60,,,0.07,TxWx,2013-06-28 03:31:00,
2013-06-27 23:36:00,76.0,72.0,29.54,South,180,8.0,8.0,88,0.60,,,0.09,TxWx,2013-06-28 03:36:00,
2013-06-27 23:41:00,76.0,72.0,29.54,South,180,3.0,5.0,89,0.60,,,0.10,TxWx,2013-06-28 03:41:00,
2013-06-27 23:46:00,76.0,72.0,29.53,South,180,6.0,6.0,89,0.60,,,0.11,TxWx,2013-06-28 03:46:00,
2013-06-27 23:52:00,76.0,73.0,29.54,SW,225,4.0,4.0,89,0.60,,,0.11,TxWx,2013-06-28 03:52:00,
2013-06-27 23:57:00,75.0,72.0,29.54,South,180,5.0,7.0,90,0.60,,,0.12,TxWx,2013-06-28 03:57:00,